| time (UTC) | temp C | wind direction | speed KPH | gust KPH | rain 1hr cm | rain 24hr cm | rain mn cm | humidity % | barometer mb |
| 20260505035223 | 3 | 353 | 8.0 | 11.3 | 0.00 | 0.00 | 0.00 | 66 | 1012.7 |
| 20260505034723 | 3 | 357 | 8.0 | 9.7 | 0.00 | 0.00 | 0.00 | 68 | 1012.6 |
| 20260505034223 | 3 | 357 | 4.8 | 9.7 | 0.00 | 0.00 | 0.00 | 68 | 1012.6 |
| 20260505033721 | 2 | 1 | 4.8 | 8.0 | 0.00 | 0.00 | 0.00 | 68 | 1012.6 |
| 20260505032722 | 3 | 345 | 0.0 | 4.8 | 0.00 | 0.00 | 0.00 | 66 | 1012.6 |
| 20260505031722 | 3 | 345 | 3.2 | 4.8 | 0.00 | 0.00 | 0.00 | 65 | 1012.5 |
| 20260505031221 | 3 | 345 | 3.2 | 4.8 | 0.00 | 0.00 | 0.00 | 65 | 1012.5 |
| 20260505030721 | 4 | 345 | 1.6 | 4.8 | 0.00 | 0.00 | 0.00 | 63 | 1012.5 |
| 20260505030223 | 5 | 345 | 3.2 | 6.4 | 0.00 | 0.00 | 0.00 | 60 | 1012.4 |
| 20260505025722 | 6 | 345 | 4.8 | 8.0 | 0.00 | 0.00 | 0.00 | 58 | 1012.3 |
| 20260505025220 | 6 | 345 | 4.8 | 8.0 | 0.00 | 0.00 | 0.00 | 57 | 1012.2 |
| 20260505024220 | 7 | 343 | 6.4 | 14.5 | 0.00 | 0.00 | 0.00 | 56 | 1012.0 |
| 20260505023720 | 7 | 348 | 9.7 | 14.5 | 0.00 | 0.00 | 0.00 | 55 | 1012.0 |
| 20260505023220 | 7 | 343 | 6.4 | 14.5 | 0.00 | 0.00 | 0.00 | 55 | 1011.9 |
| 20260505022721 | 7 | 350 | 8.0 | 16.1 | 0.00 | 0.00 | 0.00 | 55 | 1011.9 |
| 20260505022220 | 7 | 345 | 8.0 | 16.1 | 0.00 | 0.00 | 0.00 | 55 | 1011.8 |
| 20260505021720 | -17 | 354 | 9.7 | 16.1 | 0.00 | 0.00 | 0.00 | 1011.7 | |
| 20260505020719 | 8 | 0 | 11.3 | 17.7 | 0.00 | 0.00 | 0.00 | 53 | 1011.5 |
| 20260505015719 | 8 | 347 | 11.3 | 19.3 | 0.00 | 0.00 | 0.00 | 52 | 1011.5 |
| 20260505014720 | 9 | 336 | 14.5 | 24.1 | 0.00 | 0.00 | 0.00 | 50 | 1011.5 |
| 20260505014220 | 9 | 354 | 14.5 | 27.4 | 0.00 | 0.00 | 0.00 | 49 | 1011.5 |
| 20260505013718 | 10 | 355 | 16.1 | 27.4 | 0.00 | 0.00 | 0.00 | 49 | 1011.4 |
| 20260505013219 | 10 | 345 | 16.1 | 29.0 | 0.00 | 0.00 | 0.00 | 48 | 1011.3 |
| 20260505012718 | 10 | 348 | 19.3 | 29.0 | 0.00 | 0.00 | 0.00 | 48 | 1011.3 |
| 20260505012218 | 10 | 353 | 17.7 | 29.0 | 0.00 | 0.00 | 0.00 | 48 | 1011.2 |
| 20260505011218 | 11 | 347 | 16.1 | 29.0 | 0.00 | 0.00 | 0.00 | 46 | 1011.1 |
| 20260505010718 | 11 | 0 | 19.3 | 32.2 | 0.00 | 0.00 | 0.00 | 45 | 1011.0 |
| 20260505010217 | 11 | 347 | 20.9 | 35.4 | 0.00 | 0.00 | 0.00 | 45 | 1011.0 |
| 20260505005718 | 11 | 1 | 25.7 | 35.4 | 0.00 | 0.00 | 0.00 | 45 | 1011.1 |
| 20260505004718 | 12 | 358 | 27.4 | 33.8 | 0.00 | 0.00 | 0.00 | 44 | 1010.8 |
| 20260505003718 | 11 | 333 | 22.5 | 33.8 | 0.00 | 0.00 | 0.00 | 45 | 1010.7 |
| 20260505003218 | 11 | 348 | 17.7 | 30.6 | 0.00 | 0.00 | 0.00 | 45 | 1010.8 |
| 20260505002718 | 11 | 320 | 17.7 | 30.6 | 0.00 | 0.00 | 0.00 | 45 | 1010.6 |
| 20260505002216 | 12 | 351 | 17.7 | 32.2 | 0.00 | 0.00 | 0.00 | 44 | 1010.7 |
| 20260505001216 | 12 | 358 | 19.3 | 30.6 | 0.00 | 0.00 | 0.00 | 43 | 1010.7 |
| 20260505000716 | 12 | 358 | 22.5 | 24.1 | 0.00 | 0.00 | 0.00 | 45 | 1010.8 |
| 20260505000218 | 12 | 0.0 | 25.7 | 0.00 | 0.00 | 0.00 | 44 | 1010.6 | |
| 20260504235717 | 12 | 321 | 25.7 | 27.4 | 0.00 | 0.00 | 0.00 | 44 | 1010.4 |
| 20260504234717 | 12 | 344 | 20.9 | 30.6 | 0.00 | 0.00 | 0.00 | 43 | 1010.5 |
| 20260504234215 | 13 | 324 | 19.3 | 37.0 | 0.00 | 0.00 | 0.00 | 43 | 1010.5 |
| 20260504233716 | 13 | 341 | 27.4 | 37.0 | 0.00 | 0.00 | 0.00 | 43 | 1010.6 |
| 20260504233217 | 13 | 357 | 20.9 | 35.4 | 0.00 | 0.00 | 0.00 | 42 | 1010.6 |
| 20260504232715 | -17 | 6 | 24.1 | 37.0 | 0.00 | 0.00 | 0.00 | 1010.4 | |
| 20260504232216 | 13 | 13 | 24.1 | 37.0 | 0.00 | 0.00 | 0.00 | 42 | 1010.3 |
| 20260504231216 | 13 | 348 | 24.1 | 33.8 | 0.00 | 0.00 | 0.00 | 42 | 1010.4 |
| 20260504225715 | 13 | 358 | 20.9 | 35.4 | 0.00 | 0.00 | 0.00 | 41 | 1009.9 |
| 20260504224714 | 13 | 354 | 27.4 | 41.8 | 0.00 | 0.00 | 0.00 | 42 | 1009.9 |
| 20260504224216 | 13 | 343 | 25.7 | 33.8 | 0.00 | 0.00 | 0.00 | 42 | 1010.0 |
| 20260504222715 | 13 | 347 | 20.9 | 29.0 | 0.00 | 0.00 | 0.00 | 41 | 1009.8 |
| 20260504222215 | 13 | 347 | 19.3 | 29.0 | 0.00 | 0.00 | 0.00 | 43 | 1009.8 |
| 20260504221712 | 13 | 321 | 20.9 | 33.8 | 0.00 | 0.00 | 0.00 | 42 | 1009.8 |
| 20260504221212 | 13 | 350 | 16.1 | 33.8 | 0.00 | 0.00 | 0.00 | 42 | 1009.8 |
| 20260504220713 | 13 | 312 | 24.1 | 38.6 | 0.00 | 0.00 | 0.00 | 42 | 1009.7 |
| 20260504220213 | 13 | 324 | 29.0 | 38.6 | 0.00 | 0.00 | 0.00 | 42 | 1009.9 |
| 20260504215714 | 13 | 302 | 20.9 | 37.0 | 0.00 | 0.00 | 0.00 | 43 | 1009.6 |
| 20260504215214 | 13 | 314 | 24.1 | 37.0 | 0.00 | 0.00 | 0.00 | 42 | 1009.9 |
| 20260504214712 | 13 | 316 | 25.7 | 35.4 | 0.00 | 0.00 | 0.00 | 43 | 1009.9 |
| 20260504214213 | 13 | 306 | 29.0 | 45.1 | 0.00 | 0.00 | 0.00 | 43 | 1009.9 |
| 20260504213713 | 13 | 306 | 24.1 | 45.1 | 0.00 | 0.00 | 0.00 | 44 | 1009.8 |
| 20260504213211 | 13 | 313 | 33.8 | 38.6 | 0.00 | 0.00 | 0.00 | 44 | 1009.7 |
| 20260504212712 | 12 | 331 | 25.7 | 37.0 | 0.00 | 0.00 | 0.00 | 43 | 1009.9 |
| 20260504212214 | 13 | 336 | 24.1 | 46.7 | 0.00 | 0.00 | 0.00 | 42 | 1010.1 |
| 20260504210713 | 13 | 355 | 20.9 | 43.5 | 0.00 | 0.00 | 0.00 | 41 | 1010.4 |
| 20260504205712 | 13 | 343 | 29.0 | 41.8 | 0.00 | 0.00 | 0.00 | 43 | 1010.4 |
| 20260504205212 | 12 | 337 | 27.4 | 51.5 | 0.00 | 0.00 | 0.00 | 43 | 1010.5 |
| 20260504204711 | 12 | 319 | 32.2 | 51.5 | 0.00 | 0.00 | 0.00 | 42 | 1010.6 |
| 20260504204212 | 12 | 306 | 30.6 | 46.7 | 0.00 | 0.00 | 0.00 | 44 | 1010.6 |
| 20260504203712 | 12 | 338 | 20.9 | 43.5 | 0.00 | 0.00 | 0.00 | 45 | 1010.7 |
| 20260504202211 | 12 | 0 | 20.9 | 43.5 | 0.00 | 0.00 | 0.00 | 44 | 1011.0 |
| 20260504201711 | 12 | 327 | 25.7 | 41.8 | 0.00 | 0.00 | 0.00 | 44 | 1010.7 |
| 20260504201211 | 12 | 316 | 30.6 | 43.5 | 0.00 | 0.00 | 0.00 | 44 | 1010.8 |
| 20260504200711 | 12 | 320 | 27.4 | 43.5 | 0.00 | 0.00 | 0.00 | 46 | 1011.0 |
| 20260504200211 | 12 | 321 | 32.2 | 46.7 | 0.00 | 0.00 | 0.00 | 44 | 1010.6 |
| 20260504195711 | 12 | 321 | 30.6 | 49.9 | 0.00 | 0.00 | 0.00 | 45 | 1010.9 |
| 20260504195210 | 12 | 326 | 37.0 | 49.9 | 0.00 | 0.00 | 0.00 | 45 | 1010.8 |
| 20260504194711 | 12 | 326 | 27.4 | 41.8 | 0.00 | 0.00 | 0.00 | 47 | 1010.6 |
| 20260504194211 | 12 | 316 | 25.7 | 41.8 | 0.00 | 0.00 | 0.00 | 48 | 1010.5 |
| 20260504193711 | 12 | 0 | 29.0 | 41.8 | 0.00 | 0.00 | 0.00 | 47 | 1010.9 |
| 20260504193211 | 12 | 350 | 27.4 | 45.1 | 0.00 | 0.00 | 0.00 | 48 | 1011.0 |
| 20260504192709 | 12 | 340 | 30.6 | 45.1 | 0.00 | 0.00 | 0.00 | 48 | 1011.0 |
| 20260504192209 | 12 | 331 | 33.8 | 43.5 | 0.00 | 0.00 | 0.00 | 48 | 1010.4 |
| 20260504191710 | 12 | 326 | 30.6 | 43.5 | 0.00 | 0.00 | 0.00 | 48 | 1010.6 |
| 20260504191210 | 12 | 351 | 30.6 | 48.3 | 0.00 | 0.00 | 0.00 | 49 | 1010.5 |
| 20260504190208 | 11 | 324 | 25.7 | 38.6 | 0.00 | 0.00 | 0.00 | 50 | 1010.6 |
| 20260504185709 | 11 | 314 | 24.1 | 41.8 | 0.00 | 0.00 | 0.00 | 49 | 1010.5 |
| 20260504184209 | 12 | 309 | 30.6 | 43.5 | 0.00 | 0.00 | 0.00 | 50 | 1010.5 |
| 20260504183710 | 11 | 336 | 27.4 | 35.4 | 0.00 | 0.00 | 0.00 | 49 | 1010.6 |
| 20260504182709 | 12 | 326 | 25.7 | 37.0 | 0.00 | 0.00 | 0.00 | 49 | 1010.6 |
| 20260504182209 | 11 | 336 | 17.7 | 35.4 | 0.00 | 0.00 | 0.00 | 52 | 1010.7 |
| 20260504181708 | 11 | 355 | 22.5 | 41.8 | 0.00 | 0.00 | 0.00 | 51 | 1010.6 |
| 20260504181207 | 11 | 343 | 27.4 | 43.5 | 0.00 | 0.00 | 0.00 | 50 | 1010.6 |
| 20260504180708 | 11 | 357 | 30.6 | 45.1 | 0.00 | 0.00 | 0.00 | 50 | 1010.6 |
| 20260504175709 | 11 | 334 | 25.7 | 45.1 | 0.00 | 0.00 | 0.00 | 50 | 1010.5 |
| 20260504175207 | 11 | 348 | 30.6 | 45.1 | 0.00 | 0.00 | 0.00 | 48 | 1010.5 |
| 20260504174707 | 11 | 336 | 24.1 | 35.4 | 0.00 | 0.00 | 0.00 | 50 | 1010.5 |
| 20260504174208 | 11 | 0.0 | 33.8 | 0.00 | 0.00 | 0.00 | 50 | 1010.3 | |
| 20260504173707 | 11 | 327 | 33.8 | 33.8 | 0.00 | 0.00 | 0.00 | 49 | 1010.3 |
| 20260504173207 | 11 | 0 | 27.4 | 38.6 | 0.00 | 0.00 | 0.00 | 48 | 1010.1 |
| 20260504172707 | 12 | 323 | 24.1 | 38.6 | 0.00 | 0.00 | 0.00 | 49 | 1009.6 |
| 20260504172206 | 12 | 350 | 17.7 | 49.9 | 0.00 | 0.00 | 0.00 | 49 | 1010.1 |
| 20260504171706 | 12 | 326 | 30.6 | 49.9 | 0.00 | 0.00 | 0.00 | 48 | 1010.1 |
| 20260504171206 | 12 | 0 | 30.6 | 45.1 | 0.00 | 0.00 | 0.00 | 48 | 1010.3 |
| 20260504170708 | 12 | 338 | 24.1 | 38.6 | 0.00 | 0.00 | 0.00 | 48 | 1010.1 |
| 20260504170206 | 12 | 355 | 32.2 | 43.5 | 0.00 | 0.00 | 0.00 | 48 | 1010.1 |
| 20260504160206 | 12 | 350 | 25.7 | 45.1 | 0.00 | 0.00 | 0.00 | 45 | 1008.9 |
| 20260504150704 | 12 | 327 | 24.1 | 43.5 | 0.00 | 0.00 | 0.00 | 47 | 1008.5 |
| 20260504150204 | 12 | 317 | 27.4 | 37.0 | 0.00 | 0.00 | 0.00 | 49 | 1008.5 |
| 20260504141203 | 11 | 354 | 16.1 | 27.4 | 0.00 | 0.00 | 0.00 | 67 | 1008.0 |
| 20260504140704 | 10 | 313 | 19.3 | 25.7 | 0.00 | 0.00 | 0.00 | 67 | 1008.0 |
| 20260504140201 | 10 | 331 | 16.1 | 27.4 | 0.00 | 0.00 | 0.00 | 67 | 1008.0 |
| 20260504130702 | 8 | 345 | 6.4 | 9.7 | 0.00 | 0.00 | 0.00 | 79 | 1007.2 |
| 20260504130200 | 8 | 317 | 8.0 | 9.7 | 0.00 | 0.00 | 0.00 | 79 | 1007.1 |
| 20260504120200 | -17 | 348 | 8.0 | 11.3 | 0.00 | 0.00 | 0.00 | 1006.1 | |
| 20260504100157 | 7 | 321 | 9.7 | 16.1 | 0.00 | 0.00 | 0.00 | 82 | 1004.2 |
| 20260504081654 | 11 | 245 | 22.5 | 29.0 | 0.00 | 0.00 | 0.00 | 74 | 1002.6 |
| 20260504081154 | 11 | 241 | 22.5 | 30.6 | 0.00 | 0.00 | 0.00 | 74 | 1002.3 |
| 20260504080653 | 11 | 240 | 25.7 | 30.6 | 0.00 | 0.00 | 0.00 | 74 | 1002.7 |
| 20260504080154 | 11 | 241 | 22.5 | 27.4 | 0.00 | 0.00 | 0.00 | 74 | 1002.7 |
| 20260504070152 | 10 | 264 | 12.9 | 17.7 | 0.00 | 0.00 | 0.00 | 75 | 1004.1 |
| 20260504060150 | 12 | 240 | 19.3 | 24.1 | 0.00 | 0.00 | 0.00 | 65 | 1004.6 |
| 20260504050649 | 13 | 217 | 25.7 | 30.6 | 0.00 | 0.00 | 0.00 | 59 | 1004.8 |
| 20260504050148 | 12 | 216 | 20.9 | 27.4 | 0.00 | 0.00 | 0.00 | 59 | 1005.0 |
| 20260504045150 | 12 | 210 | 19.3 | 22.5 | 0.00 | 0.00 | 0.00 | 61 | 1005.2 |
| 20260504044649 | 11 | 203 | 19.3 | 22.5 | 0.00 | 0.00 | 0.00 | 62 | 1005.2 |
| 20260504044148 | 11 | 216 | 17.7 | 20.9 | 0.00 | 0.00 | 0.00 | 63 | 1005.4 |
| 20260504043649 | 11 | 212 | 16.1 | 22.5 | 0.00 | 0.00 | 0.00 | 62 | 1005.4 |
| 20260504043147 | 11 | 213 | 17.7 | 22.5 | 0.00 | 0.00 | 0.00 | 62 | 1005.4 |
| 20260504042147 | 11 | 209 | 17.7 | 25.7 | 0.00 | 0.00 | 0.00 | 60 | 1005.6 |
| 20260504041647 | 12 | 214 | 20.9 | 27.4 | 0.00 | 0.00 | 0.00 | 60 | 1005.5 |
| 20260504041148 | 11 | 209 | 22.5 | 27.4 | 0.00 | 0.00 | 0.00 | 60 | 1005.4 |
| 20260504040648 | 11 | 207 | 19.3 | 20.9 | 0.00 | 0.00 | 0.00 | 60 | 1005.6 |
| 20260504040147 | 11 | 209 | 14.5 | 20.9 | 0.00 | 0.00 | 0.00 | 59 | 1005.6 |
| 20260504035648 | 11 | 209 | 17.7 | 20.9 | 0.00 | 0.00 | 0.00 | 59 | 1005.7 |